Regional Weather Roundup
Issued by NWS Charleston, WV

Home | Current Version | Previous Version | Graphics & Text | Print | Product List | Glossary On
Versions: 1 2 3 4 5 6 7 8 9 10 11 12 13 14 15 16 17 18 19 20 21 22 23 24 25 26 27 28 29 30 31 32 33 34 35 36 37 38 39 40 41 42 43 44 45 46 47 48 49 50
000
ASUS41 KRLX 281510
RWRRLX
West Virginia Regional Weather Roundup
National Weather Service Charleston WV
1100 AM EDT SAT MAY 28 2016

Note: "fair" indicates few or no clouds below 12,000 feet with no
significant weather and/or obstructions to visibility.

WVZ003-281600-
Northern Panhandle of West Virginia

CITY           SKY/WX    TMP DP  RH WIND       PRES   REMARKS
WHEELING         N/A     79  66  64 S9        30.16R
$$

WVZ009-281600-
Northwest West Virginia

CITY           SKY/WX    TMP DP  RH WIND       PRES   REMARKS
PARKERSBURG      N/A     81  65  58 W7        30.17F
$$

WVZ006-281600-
Western West Virginia

CITY           SKY/WX    TMP DP  RH WIND       PRES   REMARKS
HUNTINGTON     PTSUNNY   79  65  62 SW6       30.15S
$$

WVZ015-281600-
West Central West Virginia

CITY           SKY/WX    TMP DP  RH WIND       PRES   REMARKS
CHARLESTON     PTSUNNY   82  64  54 VRB6      30.17R
$$

WVZ022-031-281600-
North Central West Virginia

CITY           SKY/WX    TMP DP  RH WIND       PRES   REMARKS
CLARKSBURG       N/A     81  64  56 SW8       30.18R
MORGANTOWN       N/A     81  61  50 VRB6      30.19R
$$

WVZ025-035-042-045-281600-
Southern West Virginia

CITY           SKY/WX    TMP DP  RH WIND       PRES   REMARKS
BECKLEY        PTSUNNY   76  56  49 MISG      30.25S
LOGAN            N/A     79  64  61 CALM      30.20R
BLUEFIELD      PTSUNNY   71  55  56 S6        30.28R
LEWISBURG        N/A     73  60  64 CALM      30.25S
$$

WVZ047-281600-
Northern Mountains of West Virginia

CITY           SKY/WX    TMP DP  RH WIND       PRES   REMARKS
ELKINS         CLOUDY    77  63  61 CALM      30.23S
$$

WVZ052-281600-
Eastern Panhandle of West Virginia

CITY           SKY/WX    TMP DP  RH WIND       PRES   REMARKS
MARTINSBURG      N/A     81  68  64 CALM      30.15S
PETERSBURG       N/A     81  71  70 E3        30.18S
$$



USA.gov is the U.S. government's official web portal to all federal, state and local government web resources and services.